• En España
  • Lista de países
  • Para 7 días
  • Temperatura del agua
  • Mapa Satelital
  • El tiempo en el mapa
  • Informadores
  • user-avatar
    Iniciar sesión

    Tiempo cada hora Staryy Berezay

    Hoy, 24 Septiembre, Lunes

    Tiempo Temperatura Precipitaciones Viento Presión Humedad
    00:00 +7°C° 0 mm 3 mps 737 mmHg 93%
    01:00 +7°C° 0 mm 3 mps 737 mmHg 94%
    02:00 +6°C° 0 mm 2 mps 737 mmHg 97%
    03:00 +6°C° 0 mm 2 mps 737 mmHg 97%
    04:00 +6°C° 0 mm 2 mps 737 mmHg 96%
    05:00 +5°C° 0 mm 3 mps 737 mmHg 96%
    06:00 +7°C° 0 mm 2 mps 737 mmHg 94%
    07:00 +7°C° 0 mm 2 mps 737 mmHg 92%
    08:00 +8°C° 0 mm 2 mps 737 mmHg 90%
    09:00 +9°C° 0 mm 2 mps 737 mmHg 84%
    10:00 +10°C° 0 mm 2 mps 737 mmHg 79%
    11:00 +12°C° 0 mm 2 mps 736 mmHg 74%
    12:00 +12°C° 0.6 mm 2 mps 736 mmHg 78%
    13:00 +10°C° 0.6 mm 2 mps 736 mmHg 83%
    14:00 +10°C° 0.6 mm 2 mps 735 mmHg 87%
    15:00 +9°C° 1 mm 2 mps 735 mmHg 90%
    16:00 +9°C° 1 mm 2 mps 734 mmHg 92%
    17:00 +8°C° 1 mm 2 mps 734 mmHg 95%
    18:00 +8°C° 1.3 mm 2 mps 733 mmHg 95%
    19:00 +8°C° 1.3 mm 3 mps 732 mmHg 96%
    20:00 +8°C° 1.3 mm 3 mps 732 mmHg 96%
    21:00 +7°C° 1.2 mm 3 mps 731 mmHg 95%
    22:00 +6°C° 1.2 mm 4 mps 731 mmHg 95%
    23:00 +6°C° 1.2 mm 5 mps 731 mmHg 94%

    Mañana, 25 Septiembre, Martes

    Tiempo Temperatura Precipitaciones Viento Presión Humedad
    00:00 +6°C° 1.2 mm 5 mps 731 mmHg 94%
    01:00 +6°C° 1.2 mm 5 mps 731 mmHg 93%
    02:00 +5°C° 1.2 mm 6 mps 731 mmHg 92%
    03:00 +5°C° 0.8 mm 6 mps 731 mmHg 91%
    04:00 +5°C° 0.8 mm 6 mps 731 mmHg 91%
    05:00 +5°C° 0.8 mm 6 mps 732 mmHg 90%
    06:00 +5°C° 0.4 mm 6 mps 733 mmHg 88%
    07:00 +5°C° 0.4 mm 7 mps 733 mmHg 87%
    08:00 +4°C° 0.4 mm 7 mps 734 mmHg 86%
    09:00 +5°C° 0.2 mm 7 mps 735 mmHg 82%
    10:00 +5°C° 0.2 mm 7 mps 736 mmHg 79%
    11:00 +6°C° 0.2 mm 7 mps 736 mmHg 75%
    12:00 +6°C° 0.1 mm 7 mps 737 mmHg 72%
    13:00 +6°C° 0.1 mm 7 mps 738 mmHg 68%
    14:00 +8°C° 0.1 mm 7 mps 739 mmHg 65%
    15:00 +7°C° 0.1 mm 6 mps 740 mmHg 68%
    16:00 +5°C° 0.1 mm 6 mps 740 mmHg 71%
    17:00 +5°C° 0.1 mm 6 mps 741 mmHg 74%
    18:00 +5°C° 0 mm 5 mps 742 mmHg 73%
    19:00 +5°C° 0 mm 5 mps 743 mmHg 72%
    20:00 +5°C° 0 mm 5 mps 744 mmHg 72%
    21:00 +3°C° 0 mm 5 mps 745 mmHg 72%
    22:00 +3°C° 0 mm 4 mps 745 mmHg 72%
    23:00 +1°C° 0 mm 4 mps 746 mmHg 72%

    Pasado mañana, 26 Septiembre, Miércoles

    Tiempo Temperatura Precipitaciones Viento Presión Humedad
    00:00 +1°C° 0 mm 4 mps 746 mmHg 73%
    01:00 +1°C° 0 mm 3 mps 747 mmHg 74%
    02:00 +1°C° 0 mm 3 mps 747 mmHg 75%
    03:00 0°C° 0 mm 3 mps 747 mmHg 77%
    04:00 0°C° 0 mm 3 mps 748 mmHg 79%
    05:00 0°C° 0 mm 3 mps 748 mmHg 81%
    06:00 +1°C° 0 mm 3 mps 748 mmHg 78%
    07:00 +2°C° 0 mm 3 mps 748 mmHg 76%
    08:00 +3°C° 0 mm 3 mps 749 mmHg 74%
    09:00 +5°C° 0 mm 4 mps 748 mmHg 70%
    10:00 +7°C° 0 mm 4 mps 748 mmHg 67%
    11:00 +10°C° 0 mm 4 mps 748 mmHg 64%
    12:00 +9°C° 0 mm 5 mps 747 mmHg 60%
    13:00 +9°C° 0 mm 5 mps 746 mmHg 56%
    14:00 +10°C° 0 mm 5 mps 746 mmHg 53%
    15:00 +9°C° 0.2 mm 5 mps 744 mmHg 59%
    16:00 +8°C° 0.2 mm 5 mps 743 mmHg 66%
    17:00 +7°C° 0.2 mm 5 mps 742 mmHg 72%
    18:00 +7°C° 1.1 mm 6 mps 741 mmHg 77%
    19:00 +5°C° 1.1 mm 7 mps 740 mmHg 83%
    20:00 +5°C° 1.1 mm 7 mps 739 mmHg 88%
    21:00 +5°C° 1.2 mm 7 mps 737 mmHg 88%
    22:00 +5°C° 1.2 mm 7 mps 736 mmHg 89%
    23:00 +5°C° 1.2 mm 7 mps 735 mmHg 90%

    27 Septiembre, Jueves

    Tiempo Temperatura Precipitaciones Viento Presión Humedad
    00:00 +5°C° 0.9 mm 6 mps 735 mmHg 89%
    01:00 +6°C° 0.9 mm 5 mps 735 mmHg 89%
    02:00 +7°C° 0.9 mm 5 mps 734 mmHg 89%
    03:00 +6°C° 0.1 mm 4 mps 735 mmHg 89%
    04:00 +5°C° 0.1 mm 4 mps 735 mmHg 90%
    05:00 +4°C° 0.1 mm 4 mps 735 mmHg 91%
    06:00 +5°C° 0.1 mm 4 mps 735 mmHg 88%
    07:00 +5°C° 0.1 mm 5 mps 735 mmHg 85%
    08:00 +6°C° 0.1 mm 5 mps 735 mmHg 83%
    09:00 +5°C° 0.4 mm 6 mps 735 mmHg 80%
    10:00 +7°C° 0.4 mm 6 mps 735 mmHg 77%
    11:00 +8°C° 0.4 mm 7 mps 735 mmHg 74%
    12:00 +8°C° 0.2 mm 7 mps 735 mmHg 72%
    13:00 +8°C° 0.2 mm 6 mps 735 mmHg 69%
    14:00 +8°C° 0.2 mm 6 mps 735 mmHg 67%
    15:00 +8°C° 0.1 mm 5 mps 736 mmHg 70%
    16:00 +7°C° 0.1 mm 5 mps 736 mmHg 73%
    17:00 +6°C° 0.1 mm 4 mps 736 mmHg 75%
    18:00 +6°C° 0 mm 4 mps 737 mmHg 78%
    19:00 +5°C° 0 mm 4 mps 737 mmHg 80%
    20:00 +4°C° 0 mm 4 mps 737 mmHg 82%
    21:00 +4°C° 0 mm 4 mps 738 mmHg 83%
    22:00 +4°C° 0 mm 3 mps 738 mmHg 84%
    23:00 +3°C° 0 mm 3 mps 738 mmHg 86%

    28 Septiembre, Viernes

    Tiempo Temperatura Precipitaciones Viento Presión Humedad
    00:00 +3°C° 0 mm 3 mps 738 mmHg 87%
    01:00 +3°C° 0 mm 3 mps 739 mmHg 88%
    02:00 +3°C° 0 mm 3 mps 739 mmHg 89%
    03:00 +3°C° 0 mm 3 mps 739 mmHg 90%
    04:00 +2°C° 0 mm 3 mps 739 mmHg 92%
    05:00 +3°C° 0 mm 2 mps 738 mmHg 93%
    06:00 +4°C° 0.1 mm 2 mps 738 mmHg 92%
    07:00 +4°C° 0.1 mm 2 mps 738 mmHg 91%
    08:00 +4°C° 0.1 mm 2 mps 737 mmHg 90%
    09:00 +5°C° 0.8 mm 2 mps 736 mmHg 90%
    10:00 +5°C° 0.8 mm 2 mps 735 mmHg 90%
    11:00 +5°C° 0.8 mm 2 mps 735 mmHg 89%
    12:00 +5°C° 1.1 mm 2 mps 734 mmHg 89%
    13:00 +5°C° 1.1 mm 2 mps 734 mmHg 89%
    14:00 +5°C° 1.1 mm 2 mps 734 mmHg 89%
    15:00 +5°C° 0.3 mm 2 mps 734 mmHg 89%
    16:00 +5°C° 0.3 mm 2 mps 734 mmHg 90%
    17:00 +5°C° 0.3 mm 2 mps 735 mmHg 90%
    18:00 +4°C° 0.1 mm 2 mps 736 mmHg 91%
    19:00 +4°C° 0.1 mm 2 mps 737 mmHg 92%
    20:00 +3°C° 0.1 mm 2 mps 738 mmHg 92%
    21:00 +2°C° 0 mm 2 mps 738 mmHg 93%
    22:00 +2°C° 0 mm 2 mps 739 mmHg 93%
    23:00 +1°C° 0 mm 2 mps 740 mmHg 94%

    29 Septiembre, Sábado

    Tiempo Temperatura Precipitaciones Viento Presión Humedad
    00:00 +1°C° 0 mm 2 mps 741 mmHg 94%
    01:00 -1°C° 0 mm 2 mps 741 mmHg 94%
    02:00 -1°C° 0 mm 2 mps 742 mmHg 94%
    03:00 -1°C° 0 mm 2 mps 742 mmHg 94%
    04:00 -2°C° 0 mm 2 mps 743 mmHg 94%
    05:00 -2°C° 0 mm 2 mps 743 mmHg 95%
    06:00 -1°C° 0 mm 2 mps 744 mmHg 91%
    07:00 +1°C° 0 mm 2 mps 745 mmHg 87%
    08:00 +2°C° 0 mm 2 mps 745 mmHg 84%
    09:00 +3°C° 0 mm 2 mps 746 mmHg 78%
    10:00 +3°C° 0 mm 3 mps 746 mmHg 72%
    11:00 +5°C° 0 mm 3 mps 747 mmHg 65%
    12:00 +5°C° 0 mm 3 mps 747 mmHg 62%
    13:00 +5°C° 0 mm 3 mps 748 mmHg 58%
    14:00 +5°C° 0 mm 3 mps 748 mmHg 55%
    15:00 +5°C° 0 mm 3 mps 748 mmHg 60%
    16:00 +4°C° 0 mm 3 mps 749 mmHg 66%
    17:00 +4°C° 0 mm 2 mps 749 mmHg 71%
    18:00 +3°C° 0 mm 2 mps 750 mmHg 75%
    19:00 +1°C° 0 mm 2 mps 751 mmHg 79%
    20:00 -1°C° 0 mm 2 mps 751 mmHg 83%
    21:00 -1°C° 0 mm 2 mps 752 mmHg 82%
    22:00 -1°C° 0 mm 2 mps 752 mmHg 81%
    23:00 -2°C° 0 mm 2 mps 752 mmHg 80%
    Mostrar más